TimeAKDT,TemperatureF,Dew PointF,Humidity,Sea Level PressureIn,VisibilityMPH,Wind Direction,Wind SpeedMPH,Gust SpeedMPH,PrecipitationIn,Events,Conditions,WindDirDegrees,DateUTC
12:53 AM,10.9,8.1,88,29.67,10.0,WSW,5.8,-,N/A,,Clear,240,2013-10-07 08:53:00
1:53 AM,10.9,9.0,92,29.68,10.0,SW,5.8,-,N/A,,Mostly Cloudy,220,2013-10-07 09:53:00
2:53 AM,10.0,7.0,87,29.69,10.0,SW,6.9,-,N/A,,Scattered Clouds,220,2013-10-07 10:53:00
3:53 AM,14.0,10.9,88,29.70,10.0,SW,9.2,-,N/A,,Overcast,230,2013-10-07 11:53:00
4:53 AM,16.0,12.0,84,29.70,10.0,SW,10.4,-,N/A,,Overcast,230,2013-10-07 12:53:00
5:53 AM,21.0,18.0,88,29.72,10.0,WSW,6.9,-,N/A,,Mostly Cloudy,240,2013-10-07 13:53:00
6:53 AM,23.0,21.0,92,29.73,10.0,WSW,6.9,-,N/A,,Mostly Cloudy,240,2013-10-07 14:53:00
7:53 AM,26.1,23.0,88,29.73,10.0,SW,9.2,-,N/A,,Mostly Cloudy,230,2013-10-07 15:53:00
8:53 AM,27.0,25.0,92,29.74,10.0,WSW,6.9,-,N/A,,Mostly Cloudy,250,2013-10-07 16:53:00
9:53 AM,28.0,26.1,92,29.75,10.0,West,8.1,-,N/A,,Mostly Cloudy,260,2013-10-07 17:53:00
10:53 AM,27.0,25.0,92,29.77,10.0,WSW,6.9,-,N/A,,Mostly Cloudy,250,2013-10-07 18:53:00
11:53 AM,28.0,27.0,96,29.78,10.0,West,8.1,-,N/A,,Mostly Cloudy,260,2013-10-07 19:53:00
12:53 PM,28.9,27.0,92,29.78,10.0,WSW,9.2,-,0.00,Snow,Light Snow,250,2013-10-07 20:53:00
1:53 PM,28.0,26.1,92,29.79,10.0,WSW,9.2,-,0.00,,Overcast,250,2013-10-07 21:53:00
2:53 PM,28.0,26.1,92,29.81,10.0,West,8.1,-,N/A,,Overcast,260,2013-10-07 22:53:00
3:53 PM,27.0,25.0,92,29.81,10.0,West,5.8,-,N/A,,Overcast,270,2013-10-07 23:53:00
4:53 PM,27.0,24.1,89,29.81,10.0,West,5.8,-,N/A,,Overcast,260,2013-10-08 00:53:00
5:53 PM,26.1,24.1,92,29.81,10.0,NW,3.5,-,0.00,,Overcast,310,2013-10-08 01:53:00
6:53 PM,26.1,24.1,92,29.80,10.0,North,3.5,-,N/A,,Overcast,10,2013-10-08 02:53:00
7:53 PM,25.0,24.1,96,29.80,10.0,Calm,Calm,-,N/A,,Overcast,0,2013-10-08 03:53:00
8:53 PM,25.0,23.0,92,29.80,10.0,Calm,Calm,-,N/A,,Overcast,0,2013-10-08 04:53:00
9:53 PM,25.0,24.1,96,29.80,10.0,Calm,Calm,-,N/A,,Overcast,0,2013-10-08 05:53:00
10:53 PM,26.1,24.1,92,29.78,4.0,ENE,8.1,-,N/A,,Overcast,70,2013-10-08 06:53:00
11:01 PM,26.6,24.8,93,29.78,2.5,East,8.1,-,N/A,,Overcast,80,2013-10-08 07:01:00
11:13 PM,26.6,24.8,93,29.77,0.8,East,11.5,-,N/A,,Mist,80,2013-10-08 07:13:00
11:53 PM,26.1,24.1,92,29.77,0.8,East,10.4,-,N/A,,Mist,80,2013-10-08 07:53:00